owner,sensor,date,latitude,longitude,vertical_datum,sea_water_temperature,qcFlag 
Scripps,ioos:station:wmo:42099:1,2015-03-01T00:22:00Z,27.3400,-84.2750,0.0,20.55,2 
Scripps,ioos:station:wmo:42099:1,2015-03-01T00:52:00Z,27.3400,-84.2750,0.0,20.55,2 
Scripps,ioos:station:wmo:42099:1,2015-03-01T02:22:00Z,27.3400,-84.2750,0.0,20.55,2 
Scripps,ioos:station:wmo:42099:1,2015-03-01T03:22:00Z,27.3400,-84.2750,0.0,20.55,2 
Scripps,ioos:station:wmo:42099:1,2015-03-01T04:22:00Z,27.3400,-84.2750,0.0,20.55,2 
Scripps,ioos:station:wmo:42099:1,2015-03-01T05:22:00Z,27.3400,-84.2750,0.0,20.55,2 
Scripps,ioos:station:wmo:42099:1,2015-03-01T06:22:00Z,27.3400,-84.2750,0.0,20.55,2 
Scripps,ioos:station:wmo:42099:1,2015-03-01T07:22:00Z,27.3400,-84.2750,0.0,20.55,2 
Scripps,ioos:station:wmo:42099:1,2015-03-01T08:22:00Z,27.3400,-84.2750,0.0,20.55,2 
Scripps,ioos:station:wmo:42099:1,2015-03-01T09:22:00Z,27.3400,-84.2750,0.0,20.55,2 
Scripps,ioos:station:wmo:42099:1,2015-03-01T10:22:00Z,27.3400,-84.2750,0.0,20.55,2 
Scripps,ioos:station:wmo:42099:1,2015-03-01T11:22:00Z,27.3400,-84.2750,0.0,20.55,2 
Scripps,ioos:station:wmo:42099:1,2015-03-01T12:22:00Z,27.3400,-84.2750,0.0,20.55,2 
Scripps,ioos:station:wmo:42099:1,2015-03-01T13:22:00Z,27.3400,-84.2750,0.0,20.55,2 
Scripps,ioos:station:wmo:42099:1,2015-03-01T14:22:00Z,27.3400,-84.2750,0.0,20.55,2 
Scripps,ioos:station:wmo:42099:1,2015-03-01T15:22:00Z,27.3400,-84.2750,0.0,20.9,2 
Scripps,ioos:station:wmo:42099:1,2015-03-01T16:22:00Z,27.3400,-84.2750,0.0,20.85,2 
Scripps,ioos:station:wmo:42099:1,2015-03-01T17:22:00Z,27.3400,-84.2750,0.0,20.85,2 
Scripps,ioos:station:wmo:42099:1,2015-03-01T18:22:00Z,27.3400,-84.2750,0.0,20.95,2 
Scripps,ioos:station:wmo:42099:1,2015-03-01T19:22:00Z,27.3400,-84.2750,0.0,21.15,2 
Scripps,ioos:station:wmo:42099:1,2015-03-01T20:22:00Z,27.3400,-84.2750,0.0,21.2,2 
Scripps,ioos:station:wmo:42099:1,2015-03-01T21:22:00Z,27.3400,-84.2750,0.0,21.25,2 
Scripps,ioos:station:wmo:42099:1,2015-03-01T22:22:00Z,27.3400,-84.2750,0.0,21.25,2 
Scripps,ioos:station:wmo:42099:1,2015-03-01T23:22:00Z,27.3400,-84.2750,0.0,21.2,2 
Scripps,ioos:station:wmo:42099:1,2015-03-02T00:22:00Z,27.3400,-84.2750,0.0,21.1,2 
Scripps,ioos:station:wmo:42099:1,2015-03-02T01:22:00Z,27.3400,-84.2750,0.0,20.9,2 
Scripps,ioos:station:wmo:42099:1,2015-03-02T02:22:00Z,27.3400,-84.2750,0.0,20.75,2 
Scripps,ioos:station:wmo:42099:1,2015-03-02T03:22:00Z,27.3400,-84.2750,0.0,20.9,2 
Scripps,ioos:station:wmo:42099:1,2015-03-02T04:22:00Z,27.3400,-84.2750,0.0,20.7,2 
Scripps,ioos:station:wmo:42099:1,2015-03-02T05:22:00Z,27.3400,-84.2750,0.0,20.6,2 
Scripps,ioos:station:wmo:42099:1,2015-03-02T06:22:00Z,27.3400,-84.2750,0.0,20.6,2 
Scripps,ioos:station:wmo:42099:1,2015-03-02T07:22:00Z,27.3400,-84.2750,0.0,20.6,2 
Scripps,ioos:station:wmo:42099:1,2015-03-02T08:22:00Z,27.3400,-84.2750,0.0,20.6,2 
Scripps,ioos:station:wmo:42099:1,2015-03-02T09:22:00Z,27.3400,-84.2750,0.0,20.6,2 
Scripps,ioos:station:wmo:42099:1,2015-03-02T10:22:00Z,27.3400,-84.2750,0.0,20.55,2 
Scripps,ioos:station:wmo:42099:1,2015-03-02T11:22:00Z,27.3400,-84.2750,0.0,20.55,2 
Scripps,ioos:station:wmo:42099:1,2015-03-02T12:22:00Z,27.3400,-84.2750,0.0,20.55,2 
Scripps,ioos:station:wmo:42099:1,2015-03-02T13:22:00Z,27.3400,-84.2750,0.0,20.55,2 
Scripps,ioos:station:wmo:42099:1,2015-03-02T14:22:00Z,27.3400,-84.2750,0.0,20.7,2 
Scripps,ioos:station:wmo:42099:1,2015-03-02T15:22:00Z,27.3400,-84.2750,0.0,20.8,2 
Scripps,ioos:station:wmo:42099:1,2015-03-02T16:22:00Z,27.3400,-84.2750,0.0,20.95,2 
Scripps,ioos:station:wmo:42099:1,2015-03-02T17:22:00Z,27.3400,-84.2750,0.0,21.15,2 
Scripps,ioos:station:wmo:42099:1,2015-03-02T18:22:00Z,27.3400,-84.2750,0.0,21.45,2 
Scripps,ioos:station:wmo:42099:1,2015-03-02T19:22:00Z,27.3400,-84.2750,0.0,21.35,2 
Scripps,ioos:station:wmo:42099:1,2015-03-02T20:22:00Z,27.3400,-84.2750,0.0,21.7,2 
Scripps,ioos:station:wmo:42099:1,2015-03-02T21:22:00Z,27.3400,-84.2750,0.0,22.2,2 
Scripps,ioos:station:wmo:42099:1,2015-03-02T22:22:00Z,27.3400,-84.2750,0.0,22.2,2 
Scripps,ioos:station:wmo:42099:1,2015-03-02T23:22:00Z,27.3400,-84.2750,0.0,22.3,2 
Scripps,ioos:station:wmo:42099:1,2015-03-03T00:22:00Z,27.3400,-84.2750,0.0,22.15,2 
Scripps,ioos:station:wmo:42099:1,2015-03-03T01:22:00Z,27.3400,-84.2750,0.0,22.0,2 
Scripps,ioos:station:wmo:42099:1,2015-03-03T02:22:00Z,27.3400,-84.2750,0.0,22.05,2 
Scripps,ioos:station:wmo:42099:1,2015-03-03T03:22:00Z,27.3400,-84.2750,0.0,22.15,2 
Scripps,ioos:station:wmo:42099:1,2015-03-03T04:22:00Z,27.3400,-84.2750,0.0,22.1,2 
Scripps,ioos:station:wmo:42099:1,2015-03-03T05:22:00Z,27.3400,-84.2750,0.0,22.0,2 
Scripps,ioos:station:wmo:42099:1,2015-03-03T06:22:00Z,27.3400,-84.2750,0.0,21.95,2 
Scripps,ioos:station:wmo:42099:1,2015-03-03T08:22:00Z,27.3400,-84.2750,0.0,21.65,2 
Scripps,ioos:station:wmo:42099:1,2015-03-03T09:22:00Z,27.3400,-84.2750,0.0,21.65,2 
Scripps,ioos:station:wmo:42099:1,2015-03-03T10:22:00Z,27.3400,-84.2750,0.0,21.45,2 
Scripps,ioos:station:wmo:42099:1,2015-03-03T10:52:00Z,27.3400,-84.2750,0.0,21.45,2 
Scripps,ioos:station:wmo:42099:1,2015-03-03T12:22:00Z,27.3400,-84.2750,0.0,21.3,2 
Scripps,ioos:station:wmo:42099:1,2015-03-03T13:22:00Z,27.3400,-84.2750,0.0,21.25,2 
Scripps,ioos:station:wmo:42099:1,2015-03-03T14:22:00Z,27.3400,-84.2750,0.0,21.3,2 
Scripps,ioos:station:wmo:42099:1,2015-03-03T15:22:00Z,27.3400,-84.2750,0.0,21.4,2 
Scripps,ioos:station:wmo:42099:1,2015-03-03T16:22:00Z,27.3400,-84.2750,0.0,21.5,2 
Scripps,ioos:station:wmo:42099:1,2015-03-03T17:22:00Z,27.3400,-84.2750,0.0,21.65,2 
Scripps,ioos:station:wmo:42099:1,2015-03-03T18:22:00Z,27.3400,-84.2750,0.0,21.85,2 
Scripps,ioos:station:wmo:42099:1,2015-03-03T18:52:00Z,27.3400,-84.2750,0.0,21.9,2 
Scripps,ioos:station:wmo:42099:1,2015-03-03T20:22:00Z,27.3400,-84.2750,0.0,22.1,2 
Scripps,ioos:station:wmo:42099:1,2015-03-03T21:22:00Z,27.3400,-84.2750,0.0,22.1,2 
Scripps,ioos:station:wmo:42099:1,2015-03-03T22:22:00Z,27.3400,-84.2750,0.0,22.1,2 
Scripps,ioos:station:wmo:42099:1,2015-03-03T23:22:00Z,27.3400,-84.2750,0.0,22.1,2 
Scripps,ioos:station:wmo:42099:1,2015-03-04T00:22:00Z,27.3400,-84.2750,0.0,22.2,2 
Scripps,ioos:station:wmo:42099:1,2015-03-04T00:52:00Z,27.3400,-84.2750,0.0,22.25,2 
Scripps,ioos:station:wmo:42099:1,2015-03-04T02:22:00Z,27.3400,-84.2750,0.0,22.15,2 
Scripps,ioos:station:wmo:42099:1,2015-03-04T03:22:00Z,27.3400,-84.2750,0.0,22.1,2 
Scripps,ioos:station:wmo:42099:1,2015-03-04T04:22:00Z,27.3400,-84.2750,0.0,22.05,2 
Scripps,ioos:station:wmo:42099:1,2015-03-04T05:22:00Z,27.3400,-84.2750,0.0,21.95,2 
Scripps,ioos:station:wmo:42099:1,2015-03-04T06:22:00Z,27.3400,-84.2750,0.0,21.9,2 
Scripps,ioos:station:wmo:42099:1,2015-03-04T07:22:00Z,27.3400,-84.2750,0.0,21.85,2 
Scripps,ioos:station:wmo:42099:1,2015-03-04T08:22:00Z,27.3400,-84.2750,0.0,21.8,2 
Scripps,ioos:station:wmo:42099:1,2015-03-04T09:22:00Z,27.3400,-84.2750,0.0,21.75,2 
Scripps,ioos:station:wmo:42099:1,2015-03-04T10:22:00Z,27.3400,-84.2750,0.0,21.65,2 
Scripps,ioos:station:wmo:42099:1,2015-03-04T10:52:00Z,27.3400,-84.2750,0.0,21.65,2 
Scripps,ioos:station:wmo:42099:1,2015-03-04T12:22:00Z,27.3400,-84.2750,0.0,21.6,2 
Scripps,ioos:station:wmo:42099:1,2015-03-04T13:22:00Z,27.3400,-84.2750,0.0,21.6,2 
Scripps,ioos:station:wmo:42099:1,2015-03-04T14:22:00Z,27.3400,-84.2750,0.0,21.65,2 
Scripps,ioos:station:wmo:42099:1,2015-03-04T15:22:00Z,27.3400,-84.2750,0.0,21.7,2 
Scripps,ioos:station:wmo:42099:1,2015-03-04T16:22:00Z,27.3400,-84.2750,0.0,21.85,2 
Scripps,ioos:station:wmo:42099:1,2015-03-04T17:22:00Z,27.3400,-84.2750,0.0,21.95,2 
Scripps,ioos:station:wmo:42099:1,2015-03-04T18:22:00Z,27.3400,-84.2750,0.0,22.05,2 
Scripps,ioos:station:wmo:42099:1,2015-03-04T19:22:00Z,27.3400,-84.2750,0.0,22.1,2 
Scripps,ioos:station:wmo:42099:1,2015-03-04T20:22:00Z,27.3400,-84.2750,0.0,22.2,2 
Scripps,ioos:station:wmo:42099:1,2015-03-04T21:22:00Z,27.3400,-84.2750,0.0,22.15,2 
Scripps,ioos:station:wmo:42099:1,2015-03-04T22:22:00Z,27.3400,-84.2750,0.0,22.1,2 
Scripps,ioos:station:wmo:42099:1,2015-03-04T23:22:00Z,27.3400,-84.2750,0.0,22.15,2 
Scripps,ioos:station:wmo:42099:1,2015-03-05T00:22:00Z,27.3400,-84.2750,0.0,21.95,2 
Scripps,ioos:station:wmo:42099:1,2015-03-05T01:22:00Z,27.3400,-84.2750,0.0,21.9,2 
Scripps,ioos:station:wmo:42099:1,2015-03-05T02:22:00Z,27.3400,-84.2750,0.0,21.8,2 
Scripps,ioos:station:wmo:42099:1,2015-03-05T03:22:00Z,27.3400,-84.2750,0.0,21.85,2 
Scripps,ioos:station:wmo:42099:1,2015-03-05T04:22:00Z,27.3400,-84.2750,0.0,21.9,2 
Scripps,ioos:station:wmo:42099:1,2015-03-05T05:22:00Z,27.3400,-84.2750,0.0,21.9,2 
Scripps,ioos:station:wmo:42099:1,2015-03-05T06:22:00Z,27.3400,-84.2750,0.0,21.8,2 
Scripps,ioos:station:wmo:42099:1,2015-03-05T06:52:00Z,27.3400,-84.2750,0.0,21.8,2 
Scripps,ioos:station:wmo:42099:1,2015-03-05T08:22:00Z,27.3400,-84.2750,0.0,21.65,2 
Scripps,ioos:station:wmo:42099:1,2015-03-05T09:22:00Z,27.3400,-84.2750,0.0,21.8,2 
Scripps,ioos:station:wmo:42099:1,2015-03-05T10:22:00Z,27.3400,-84.2750,0.0,21.9,2 
Scripps,ioos:station:wmo:42099:1,2015-03-05T11:22:00Z,27.3400,-84.2750,0.0,21.85,2 
Scripps,ioos:station:wmo:42099:1,2015-03-05T12:22:00Z,27.3400,-84.2750,0.0,21.8,2 
Scripps,ioos:station:wmo:42099:1,2015-03-05T13:22:00Z,27.3400,-84.2750,0.0,21.8,2 
Scripps,ioos:station:wmo:42099:1,2015-03-05T14:22:00Z,27.3400,-84.2750,0.0,21.8,2 
Scripps,ioos:station:wmo:42099:1,2015-03-05T15:22:00Z,27.3400,-84.2750,0.0,21.75,2 
Scripps,ioos:station:wmo:42099:1,2015-03-05T16:22:00Z,27.3400,-84.2750,0.0,21.85,2 
Scripps,ioos:station:wmo:42099:1,2015-03-05T16:52:00Z,27.3400,-84.2750,0.0,21.85,2 
Scripps,ioos:station:wmo:42099:1,2015-03-05T18:22:00Z,27.3400,-84.2750,0.0,21.95,2 
Scripps,ioos:station:wmo:42099:1,2015-03-05T19:22:00Z,27.3400,-84.2750,0.0,22.05,2 
Scripps,ioos:station:wmo:42099:1,2015-03-05T20:22:00Z,27.3400,-84.2750,0.0,22.15,2 
Scripps,ioos:station:wmo:42099:1,2015-03-05T21:22:00Z,27.3400,-84.2750,0.0,22.05,2 
Scripps,ioos:station:wmo:42099:1,2015-03-05T22:22:00Z,27.3400,-84.2750,0.0,22.2,2 
Scripps,ioos:station:wmo:42099:1,2015-03-05T23:22:00Z,27.3400,-84.2750,0.0,22.4,2 
Scripps,ioos:station:wmo:42099:1,2015-03-06T00:22:00Z,27.3400,-84.2750,0.0,22.2,2 
Scripps,ioos:station:wmo:42099:1,2015-03-06T01:22:00Z,27.3400,-84.2750,0.0,21.9,2 
Scripps,ioos:station:wmo:42099:1,2015-03-06T02:22:00Z,27.3400,-84.2750,0.0,21.85,2 
Scripps,ioos:station:wmo:42099:1,2015-03-06T03:22:00Z,27.3400,-84.2750,0.0,21.85,2 
Scripps,ioos:station:wmo:42099:1,2015-03-06T04:22:00Z,27.3400,-84.2750,0.0,21.85,2 
Scripps,ioos:station:wmo:42099:1,2015-03-06T05:22:00Z,27.3400,-84.2750,0.0,21.95,2 
Scripps,ioos:station:wmo:42099:1,2015-03-06T06:22:00Z,27.3400,-84.2750,0.0,22.1,2 
Scripps,ioos:station:wmo:42099:1,2015-03-06T08:22:00Z,27.3400,-84.2750,0.0,21.95,2 
Scripps,ioos:station:wmo:42099:1,2015-03-06T08:52:00Z,27.3400,-84.2750,0.0,21.85,2 
Scripps,ioos:station:wmo:42099:1,2015-03-06T10:22:00Z,27.3400,-84.2750,0.0,21.6,2 
Scripps,ioos:station:wmo:42099:1,2015-03-06T11:22:00Z,27.3400,-84.2750,0.0,21.55,2 
Scripps,ioos:station:wmo:42099:1,2015-03-06T12:22:00Z,27.3400,-84.2750,0.0,21.45,2 
Scripps,ioos:station:wmo:42099:1,2015-03-06T13:22:00Z,27.3400,-84.2750,0.0,21.35,2 
Scripps,ioos:station:wmo:42099:1,2015-03-06T14:22:00Z,27.3400,-84.2750,0.0,21.25,2 
Scripps,ioos:station:wmo:42099:1,2015-03-06T15:22:00Z,27.3400,-84.2750,0.0,21.25,2 
Scripps,ioos:station:wmo:42099:1,2015-03-06T16:22:00Z,27.3400,-84.2750,0.0,21.2,2 
Scripps,ioos:station:wmo:42099:1,2015-03-06T17:22:00Z,27.3400,-84.2750,0.0,21.2,2 
Scripps,ioos:station:wmo:42099:1,2015-03-06T18:22:00Z,27.3400,-84.2750,0.0,21.15,2 
Scripps,ioos:station:wmo:42099:1,2015-03-06T19:22:00Z,27.3400,-84.2750,0.0,21.15,2 
Scripps,ioos:station:wmo:42099:1,2015-03-06T20:22:00Z,27.3400,-84.2750,0.0,21.15,2 
Scripps,ioos:station:wmo:42099:1,2015-03-06T21:22:00Z,27.3400,-84.2750,0.0,21.15,2 
Scripps,ioos:station:wmo:42099:1,2015-03-06T21:52:00Z,27.3400,-84.2750,0.0,21.15,2 
Scripps,ioos:station:wmo:42099:1,2015-03-06T23:22:00Z,27.3400,-84.2750,0.0,21.1,2 
Scripps,ioos:station:wmo:42099:1,2015-03-07T00:22:00Z,27.3400,-84.2750,0.0,21.1,2 
Scripps,ioos:station:wmo:42099:1,2015-03-07T01:22:00Z,27.3400,-84.2750,0.0,21.1,2 
Scripps,ioos:station:wmo:42099:1,2015-03-07T02:22:00Z,27.3400,-84.2750,0.0,21.1,2 
Scripps,ioos:station:wmo:42099:1,2015-03-07T03:22:00Z,27.3400,-84.2750,0.0,21.1,2 
Scripps,ioos:station:wmo:42099:1,2015-03-07T04:22:00Z,27.3400,-84.2750,0.0,21.1,2 
Scripps,ioos:station:wmo:42099:1,2015-03-07T05:22:00Z,27.3400,-84.2750,0.0,21.05,2 
Scripps,ioos:station:wmo:42099:1,2015-03-07T06:22:00Z,27.3400,-84.2750,0.0,21.05,2 
Scripps,ioos:station:wmo:42099:1,2015-03-07T08:22:00Z,27.3400,-84.2750,0.0,21.05,2 
Scripps,ioos:station:wmo:42099:1,2015-03-07T09:22:00Z,27.3400,-84.2750,0.0,21.05,2 
Scripps,ioos:station:wmo:42099:1,2015-03-07T10:22:00Z,27.3400,-84.2750,0.0,21.0,2 
Scripps,ioos:station:wmo:42099:1,2015-03-07T10:52:00Z,27.3400,-84.2750,0.0,21.0,2 
Scripps,ioos:station:wmo:42099:1,2015-03-07T12:22:00Z,27.3400,-84.2750,0.0,21.0,2 
Scripps,ioos:station:wmo:42099:1,2015-03-07T13:22:00Z,27.3400,-84.2750,0.0,21.0,2 
Scripps,ioos:station:wmo:42099:1,2015-03-07T14:22:00Z,27.3400,-84.2750,0.0,21.05,2 
Scripps,ioos:station:wmo:42099:1,2015-03-07T15:22:00Z,27.3400,-84.2750,0.0,21.15,2 
Scripps,ioos:station:wmo:42099:1,2015-03-07T15:52:00Z,27.3400,-84.2750,0.0,21.15,2 
Scripps,ioos:station:wmo:42099:1,2015-03-07T17:22:00Z,27.3400,-84.2750,0.0,21.15,2 
Scripps,ioos:station:wmo:42099:1,2015-03-07T18:22:00Z,27.3400,-84.2750,0.0,21.1,2 
Scripps,ioos:station:wmo:42099:1,2015-03-07T19:22:00Z,27.3400,-84.2750,0.0,21.05,2 
Scripps,ioos:station:wmo:42099:1,2015-03-07T20:22:00Z,27.3400,-84.2750,0.0,21.05,2 
Scripps,ioos:station:wmo:42099:1,2015-03-07T21:22:00Z,27.3400,-84.2750,0.0,21.05,2 
Scripps,ioos:station:wmo:42099:1,2015-03-07T22:22:00Z,27.3400,-84.2750,0.0,21.05,2 
Scripps,ioos:station:wmo:42099:1,2015-03-07T23:22:00Z,27.3400,-84.2750,0.0,21.05,2 
Scripps,ioos:station:wmo:42099:1,2015-03-08T00:22:00Z,27.3400,-84.2750,0.0,21.05,2 
Scripps,ioos:station:wmo:42099:1,2015-03-08T01:22:00Z,27.3400,-84.2750,0.0,21.05,2 
Scripps,ioos:station:wmo:42099:1,2015-03-08T02:22:00Z,27.3400,-84.2750,0.0,21.0,2 
Scripps,ioos:station:wmo:42099:1,2015-03-08T03:22:00Z,27.3400,-84.2750,0.0,21.25,2 
Scripps,ioos:station:wmo:42099:1,2015-03-08T04:22:00Z,27.3400,-84.2750,0.0,21.3,2 
Scripps,ioos:station:wmo:42099:1,2015-03-08T05:22:00Z,27.3400,-84.2750,0.0,21.35,2 
Scripps,ioos:station:wmo:42099:1,2015-03-08T06:22:00Z,27.3400,-84.2750,0.0,21.35,2 
Scripps,ioos:station:wmo:42099:1,2015-03-08T08:22:00Z,27.3400,-84.2750,0.0,21.3,2 
Scripps,ioos:station:wmo:42099:1,2015-03-08T09:22:00Z,27.3400,-84.2750,0.0,21.25,2 
Scripps,ioos:station:wmo:42099:1,2015-03-08T10:22:00Z,27.3400,-84.2750,0.0,21.2,2 
Scripps,ioos:station:wmo:42099:1,2015-03-08T11:22:00Z,27.3400,-84.2750,0.0,21.2,2 
Scripps,ioos:station:wmo:42099:1,2015-03-08T12:22:00Z,27.3400,-84.2750,0.0,21.2,2 
Scripps,ioos:station:wmo:42099:1,2015-03-08T13:22:00Z,27.3400,-84.2750,0.0,21.2,2 
Scripps,ioos:station:wmo:42099:1,2015-03-08T14:22:00Z,27.3400,-84.2750,0.0,21.2,2 
Scripps,ioos:station:wmo:42099:1,2015-03-08T15:22:00Z,27.3400,-84.2750,0.0,21.25,2 
Scripps,ioos:station:wmo:42099:1,2015-03-08T16:22:00Z,27.3400,-84.2750,0.0,21.3,2 
Scripps,ioos:station:wmo:42099:1,2015-03-08T17:22:00Z,27.3400,-84.2750,0.0,21.4,2 
Scripps,ioos:station:wmo:42099:1,2015-03-08T18:22:00Z,27.3400,-84.2750,0.0,21.45,2 
Scripps,ioos:station:wmo:42099:1,2015-03-08T19:22:00Z,27.3400,-84.2750,0.0,21.5,2 
Scripps,ioos:station:wmo:42099:1,2015-03-08T19:52:00Z,27.3400,-84.2750,0.0,21.5,2 
Scripps,ioos:station:wmo:42099:1,2015-03-08T21:22:00Z,27.3400,-84.2750,0.0,21.55,2 
Scripps,ioos:station:wmo:42099:1,2015-03-08T22:22:00Z,27.3400,-84.2750,0.0,21.55,2 
Scripps,ioos:station:wmo:42099:1,2015-03-08T23:22:00Z,27.3400,-84.2750,0.0,21.5,2 
Scripps,ioos:station:wmo:42099:1,2015-03-09T00:22:00Z,27.3400,-84.2750,0.0,21.55,2 
Scripps,ioos:station:wmo:42099:1,2015-03-09T01:22:00Z,27.3400,-84.2750,0.0,21.55,2 
Scripps,ioos:station:wmo:42099:1,2015-03-09T02:22:00Z,27.3400,-84.2750,0.0,21.6,2 
Scripps,ioos:station:wmo:42099:1,2015-03-09T03:22:00Z,27.3400,-84.2750,0.0,21.6,2 
Scripps,ioos:station:wmo:42099:1,2015-03-09T04:22:00Z,27.3400,-84.2750,0.0,21.65,2 
Scripps,ioos:station:wmo:42099:1,2015-03-09T05:22:00Z,27.3400,-84.2750,0.0,21.65,2 
Scripps,ioos:station:wmo:42099:1,2015-03-09T06:22:00Z,27.3400,-84.2750,0.0,21.65,2 
Scripps,ioos:station:wmo:42099:1,2015-03-09T08:22:00Z,27.3400,-84.2750,0.0,21.65,2 
Scripps,ioos:station:wmo:42099:1,2015-03-09T09:22:00Z,27.3400,-84.2750,0.0,21.65,2 
Scripps,ioos:station:wmo:42099:1,2015-03-09T10:22:00Z,27.3400,-84.2750,0.0,21.65,2 
Scripps,ioos:station:wmo:42099:1,2015-03-09T11:22:00Z,27.3400,-84.2750,0.0,21.6,2 
Scripps,ioos:station:wmo:42099:1,2015-03-09T12:22:00Z,27.3400,-84.2750,0.0,21.6,2 
Scripps,ioos:station:wmo:42099:1,2015-03-09T13:22:00Z,27.3400,-84.2750,0.0,21.55,2 
Scripps,ioos:station:wmo:42099:1,2015-03-09T14:22:00Z,27.3400,-84.2750,0.0,21.6,2 
Scripps,ioos:station:wmo:42099:1,2015-03-09T15:22:00Z,27.3400,-84.2750,0.0,21.6,2 
Scripps,ioos:station:wmo:42099:1,2015-03-09T16:22:00Z,27.3400,-84.2750,0.0,21.65,2 
Scripps,ioos:station:wmo:42099:1,2015-03-09T17:22:00Z,27.3400,-84.2750,0.0,21.65,2 
Scripps,ioos:station:wmo:42099:1,2015-03-09T18:22:00Z,27.3400,-84.2750,0.0,21.7,2 
Scripps,ioos:station:wmo:42099:1,2015-03-09T19:22:00Z,27.3400,-84.2750,0.0,21.7,2 
Scripps,ioos:station:wmo:42099:1,2015-03-09T20:22:00Z,27.3400,-84.2750,0.0,21.7,2 
Scripps,ioos:station:wmo:42099:1,2015-03-09T21:22:00Z,27.3400,-84.2750,0.0,21.65,2 
Scripps,ioos:station:wmo:42099:1,2015-03-09T23:22:00Z,27.3400,-84.2750,0.0,21.65,2 
Scripps,ioos:station:wmo:42099:1,2015-03-10T00:22:00Z,27.3400,-84.2750,0.0,21.7,2 
Scripps,ioos:station:wmo:42099:1,2015-03-10T01:22:00Z,27.3400,-84.2750,0.0,21.65,2 
Scripps,ioos:station:wmo:42099:1,2015-03-10T02:22:00Z,27.3400,-84.2750,0.0,21.65,2 
Scripps,ioos:station:wmo:42099:1,2015-03-10T03:22:00Z,27.3400,-84.2750,0.0,21.65,2 
Scripps,ioos:station:wmo:42099:1,2015-03-10T04:22:00Z,27.3400,-84.2750,0.0,21.8,2 
Scripps,ioos:station:wmo:42099:1,2015-03-10T05:22:00Z,27.3400,-84.2750,0.0,21.85,2 
Scripps,ioos:station:wmo:42099:1,2015-03-10T06:22:00Z,27.3400,-84.2750,0.0,21.75,2 
Scripps,ioos:station:wmo:42099:1,2015-03-10T08:22:00Z,27.3400,-84.2750,0.0,21.7,2 
Scripps,ioos:station:wmo:42099:1,2015-03-10T09:22:00Z,27.3400,-84.2750,0.0,21.8,2 
Scripps,ioos:station:wmo:42099:1,2015-03-10T10:22:00Z,27.3400,-84.2750,0.0,21.85,2 
Scripps,ioos:station:wmo:42099:1,2015-03-10T11:22:00Z,27.3400,-84.2750,0.0,21.8,2 
Scripps,ioos:station:wmo:42099:1,2015-03-10T12:22:00Z,27.3400,-84.2750,0.0,21.8,2 
Scripps,ioos:station:wmo:42099:1,2015-03-10T14:22:00Z,27.3400,-84.2750,0.0,21.8,2 
Scripps,ioos:station:wmo:42099:1,2015-03-10T15:22:00Z,27.3400,-84.2750,0.0,21.85,2 
Scripps,ioos:station:wmo:42099:1,2015-03-10T16:22:00Z,27.3400,-84.2750,0.0,21.9,2 
Scripps,ioos:station:wmo:42099:1,2015-03-10T17:22:00Z,27.3400,-84.2750,0.0,21.9,2 
Scripps,ioos:station:wmo:42099:1,2015-03-10T18:22:00Z,27.3400,-84.2750,0.0,21.95,2 
Scripps,ioos:station:wmo:42099:1,2015-03-10T19:22:00Z,27.3400,-84.2750,0.0,22.05,2 
Scripps,ioos:station:wmo:42099:1,2015-03-10T20:22:00Z,27.3400,-84.2750,0.0,22.0,2 
Scripps,ioos:station:wmo:42099:1,2015-03-10T21:22:00Z,27.3400,-84.2750,0.0,21.95,2 
Scripps,ioos:station:wmo:42099:1,2015-03-10T22:22:00Z,27.3400,-84.2750,0.0,21.9,2 
Scripps,ioos:station:wmo:42099:1,2015-03-10T23:22:00Z,27.3400,-84.2750,0.0,21.9,2 
Scripps,ioos:station:wmo:42099:1,2015-03-11T00:22:00Z,27.3400,-84.2750,0.0,21.95,2 
Scripps,ioos:station:wmo:42099:1,2015-03-11T01:22:00Z,27.3400,-84.2750,0.0,21.9,2 
Scripps,ioos:station:wmo:42099:1,2015-03-11T02:22:00Z,27.3400,-84.2750,0.0,21.95,2 
Scripps,ioos:station:wmo:42099:1,2015-03-11T02:52:00Z,27.3400,-84.2750,0.0,21.95,2 
Scripps,ioos:station:wmo:42099:1,2015-03-11T04:22:00Z,27.3400,-84.2750,0.0,22.2,2 
Scripps,ioos:station:wmo:42099:1,2015-03-11T05:22:00Z,27.3400,-84.2750,0.0,22.2,2 
Scripps,ioos:station:wmo:42099:1,2015-03-11T06:22:00Z,27.3400,-84.2750,0.0,22.2,2 
Scripps,ioos:station:wmo:42099:1,2015-03-11T08:22:00Z,27.3400,-84.2750,0.0,22.15,2 
Scripps,ioos:station:wmo:42099:1,2015-03-11T09:22:00Z,27.3400,-84.2750,0.0,22.1,2 
Scripps,ioos:station:wmo:42099:1,2015-03-11T10:22:00Z,27.3400,-84.2750,0.0,22.1,2 
Scripps,ioos:station:wmo:42099:1,2015-03-11T11:22:00Z,27.3400,-84.2750,0.0,22.1,2 
Scripps,ioos:station:wmo:42099:1,2015-03-11T12:22:00Z,27.3400,-84.2750,0.0,22.05,2 
Scripps,ioos:station:wmo:42099:1,2015-03-11T13:22:00Z,27.3400,-84.2750,0.0,22.1,2 
Scripps,ioos:station:wmo:42099:1,2015-03-11T14:22:00Z,27.3400,-84.2750,0.0,22.1,2 
Scripps,ioos:station:wmo:42099:1,2015-03-11T15:22:00Z,27.3400,-84.2750,0.0,22.15,2 
Scripps,ioos:station:wmo:42099:1,2015-03-11T16:22:00Z,27.3400,-84.2750,0.0,22.2,2 
Scripps,ioos:station:wmo:42099:1,2015-03-11T17:22:00Z,27.3400,-84.2750,0.0,22.25,2 
Scripps,ioos:station:wmo:42099:1,2015-03-11T18:22:00Z,27.3400,-84.2750,0.0,22.35,2 
Scripps,ioos:station:wmo:42099:1,2015-03-11T19:22:00Z,27.3400,-84.2750,0.0,22.5,2 
Scripps,ioos:station:wmo:42099:1,2015-03-11T19:52:00Z,27.3400,-84.2750,0.0,22.6,2 
Scripps,ioos:station:wmo:42099:1,2015-03-11T21:22:00Z,27.3400,-84.2750,0.0,22.65,2 
Scripps,ioos:station:wmo:42099:1,2015-03-11T22:22:00Z,27.3400,-84.2750,0.0,22.6,2 
Scripps,ioos:station:wmo:42099:1,2015-03-11T23:22:00Z,27.3400,-84.2750,0.0,22.6,2 
Scripps,ioos:station:wmo:42099:1,2015-03-12T00:22:00Z,27.3400,-84.2750,0.0,22.55,2 
Scripps,ioos:station:wmo:42099:1,2015-03-12T01:22:00Z,27.3400,-84.2750,0.0,22.5,2 
Scripps,ioos:station:wmo:42099:1,2015-03-12T02:22:00Z,27.3400,-84.2750,0.0,22.55,2 
Scripps,ioos:station:wmo:42099:1,2015-03-12T03:22:00Z,27.3400,-84.2750,0.0,22.45,2 
Scripps,ioos:station:wmo:42099:1,2015-03-12T04:22:00Z,27.3400,-84.2750,0.0,22.35,2 
Scripps,ioos:station:wmo:42099:1,2015-03-12T05:22:00Z,27.3400,-84.2750,0.0,22.5,2 
Scripps,ioos:station:wmo:42099:1,2015-03-12T06:22:00Z,27.3400,-84.2750,0.0,22.4,2 
Scripps,ioos:station:wmo:42099:1,2015-03-12T08:22:00Z,27.3400,-84.2750,0.0,22.1,2 
Scripps,ioos:station:wmo:42099:1,2015-03-12T09:22:00Z,27.3400,-84.2750,0.0,22.05,2 
Scripps,ioos:station:wmo:42099:1,2015-03-12T10:22:00Z,27.3400,-84.2750,0.0,22.05,2 
Scripps,ioos:station:wmo:42099:1,2015-03-12T11:22:00Z,27.3400,-84.2750,0.0,22.0,2 
Scripps,ioos:station:wmo:42099:1,2015-03-12T12:22:00Z,27.3400,-84.2750,0.0,21.95,2 
Scripps,ioos:station:wmo:42099:1,2015-03-12T13:22:00Z,27.3400,-84.2750,0.0,22.0,2 
Scripps,ioos:station:wmo:42099:1,2015-03-12T14:22:00Z,27.3400,-84.2750,0.0,22.0,2 
Scripps,ioos:station:wmo:42099:1,2015-03-12T15:22:00Z,27.3400,-84.2750,0.0,22.1,2 
Scripps,ioos:station:wmo:42099:1,2015-03-12T16:22:00Z,27.3400,-84.2750,0.0,22.3,2 
Scripps,ioos:station:wmo:42099:1,2015-03-12T17:22:00Z,27.3400,-84.2750,0.0,22.45,2 
Scripps,ioos:station:wmo:42099:1,2015-03-12T18:22:00Z,27.3400,-84.2750,0.0,22.55,2 
Scripps,ioos:station:wmo:42099:1,2015-03-12T18:52:00Z,27.3400,-84.2750,0.0,22.6,2 
Scripps,ioos:station:wmo:42099:1,2015-03-12T20:22:00Z,27.3400,-84.2750,0.0,22.7,2 
Scripps,ioos:station:wmo:42099:1,2015-03-12T21:22:00Z,27.3400,-84.2750,0.0,22.75,2 
Scripps,ioos:station:wmo:42099:1,2015-03-12T22:22:00Z,27.3400,-84.2750,0.0,22.75,2 
Scripps,ioos:station:wmo:42099:1,2015-03-13T00:22:00Z,27.3400,-84.2750,0.0,22.6,2 
Scripps,ioos:station:wmo:42099:1,2015-03-13T01:22:00Z,27.3400,-84.2750,0.0,22.6,2 
Scripps,ioos:station:wmo:42099:1,2015-03-13T02:22:00Z,27.3400,-84.2750,0.0,22.55,2 
Scripps,ioos:station:wmo:42099:1,2015-03-13T03:22:00Z,27.3400,-84.2750,0.0,22.55,2 
Scripps,ioos:station:wmo:42099:1,2015-03-13T04:22:00Z,27.3400,-84.2750,0.0,22.3,2 
Scripps,ioos:station:wmo:42099:1,2015-03-13T05:22:00Z,27.3400,-84.2750,0.0,22.25,2 
Scripps,ioos:station:wmo:42099:1,2015-03-13T06:22:00Z,27.3400,-84.2750,0.0,22.5,2 
Scripps,ioos:station:wmo:42099:1,2015-03-13T08:22:00Z,27.3400,-84.2750,0.0,22.75,2 
Scripps,ioos:station:wmo:42099:1,2015-03-13T09:22:00Z,27.3400,-84.2750,0.0,22.8,2 